Voltar ao catálogo

STARLINK-31470

AtivoComunicaçõesVLEO
NORAD 59569·PAYLOAD·🇺🇸 United States

Lançado Apr 23, 2024 de Cape Canaveral Space Force Station

Loading…

Próximas Passagens (próximas 24 horas)

TLE

AtualizadoSource: CelesTrak SupGP

Época: Sep 15, 2026, 02:36 UTC

1 59569C 24076F   26258.10881944  .00002641  00000+0  95650-4 0  2580
2 59569  43.0044  15.8584 0002064 273.4184   0.0223 15.27573751    14

Acompanhe STARLINK-31470 em tempo real com AllMySat

Download on the App Store